CW8164 Weather Reports


time (UTC)temp
F
wind
direction
speed
knots
gust
knots
rain 1hr
in
rain 24hr
in
rain mn
in
humidity
%
barometer
mb
20260505152903 55 174 0.0 0.0 0.00 0.00 0.00 85 1016.1
20260505152403 55 215 0.0 0.0 0.00 0.00 0.00 86 1016.0
20260505151903 55 216 0.0 0.0 0.00 0.00 0.00 86 1016.0
20260505150903 55 226 0.0 0.0 0.00 0.00 0.00 86 1015.9
20260505150403 54 239 0.0 0.0 0.00 0.00 0.00 87 1015.8
20260505140403 54 243 0.0 0.0 0.00 0.00 0.00 87 1015.2
20260505124904 54 250 0.0 0.0 0.00 0.00 0.00 88 1014.9
20260505123403 54 250 0.0 0.0 0.00 0.00 0.00 88 1014.9
20260505122903 54 250 0.0 0.0 0.00 0.00 0.00 89 1014.8
20260505122403 54 250 0.0 0.0 0.00 0.00 0.00 88 1014.9
20260505121903 54 250 0.0 0.0 0.00 0.00 0.00 88 1014.9
20260505121403 54 250 0.0 0.0 0.00 0.00 0.00 88 1014.8
20260505120403 54 250 0.0 0.0 0.00 0.00 0.00 88 1014.8
20260505115904 54 250 0.0 0.0 0.00 0.00 0.00 88 1014.8
20260505115403 54 250 0.0 0.0 0.00 0.00 0.00 88 1014.7
20260505114903 54 250 0.0 0.0 0.00 0.00 0.00 88 1014.7
20260505114404 54 250 0.0 0.0 0.00 0.00 0.00 88 1014.7
20260505113402 54 250 0.0 0.0 0.00 0.00 0.00 88 1014.7
20260505112904 54 250 0.0 0.0 0.00 0.00 0.00 88 1014.8
20260505111903 54 250 0.0 0.0 0.00 0.00 0.00 88 1014.7
20260505111403 54 250 0.0 0.0 0.00 0.00 0.00 88 1014.7
20260505110903 54 250 0.0 0.0 0.00 0.00 0.00 88 1014.7
20260505101903 54 250 0.0 0.0 0.00 0.00 0.00 88 1014.3
20260505101404 54 248 0.0 0.0 0.00 0.00 0.00 88 1014.3
20260505100903 54 252 0.0 0.0 0.00 0.00 0.00 88 1014.3
20260505100403 54 248 0.0 0.0 0.00 0.00 0.00 88 1014.3
20260505095903 54 230 0.0 0.0 0.00 0.00 0.00 88 1014.3
20260505094903 54 230 0.0 1.7 0.00 0.00 0.00 87 1014.2
20260505094403 54 230 0.0 1.7 0.00 0.00 0.00 87 1014.2
20260505093903 54 230 0.0 0.0 0.00 0.00 0.00 87 1014.2
20260505093403 54 230 0.0 0.0 0.00 0.00 0.00 87 1014.2
20260505092903 54 230 0.0 0.9 0.00 0.00 0.00 87 1014.2
20260505092403 54 230 0.0 0.9 0.00 0.00 0.00 87 1014.0
20260505091903 54 230 0.0 0.0 0.00 0.00 0.00 87 1014.0
20260505091402 54 230 0.0 0.0 0.00 0.00 0.00 88 1014.0
20260505090903 54 230 0.0 0.0 0.00 0.00 0.00 87 1014.0
20260505090403 54 230 0.0 0.0 0.00 0.00 0.00 87 1013.9
20260505085903 54 232 0.0 1.7 0.00 0.00 0.00 87 1013.9
20260505084904 54 225 0.0 0.0 0.00 0.00 0.00 87 1013.9
20260505084403 54 225 0.0 0.0 0.00 0.00 0.00 88 1013.8
20260505083903 54 227 0.0 0.0 0.00 0.00 0.00 88 1013.9
20260505083403 53 228 0.0 0.0 0.00 0.00 0.00 88 1013.7
20260505081903 53 224 0.0 0.0 0.00 0.00 0.00 89 1013.7
20260505081403 53 236 0.0 0.0 0.00 0.00 0.00 89 1013.7
20260505080403 53 236 0.0 0.0 0.00 0.00 0.00 88 1013.6
20260505074403 53 236 0.0 0.0 0.00 0.00 0.00 87 1013.3
20260505073903 53 236 0.0 0.0 0.00 0.00 0.00 86 1013.3
20260505073402 53 236 0.0 0.0 0.00 0.00 0.00 86 1013.3
20260505072403 54 236 0.0 0.0 0.00 0.00 0.00 85 1013.1
20260505071903 54 236 0.0 0.0 0.00 0.00 0.00 85 1013.1
20260505070902 55 236 0.0 0.0 0.00 0.00 0.00 83 1013.0
20260505070403 55 236 0.0 0.0 0.00 0.00 0.00 83 1013.0
20260505065902 55 236 0.0 0.0 0.00 0.00 0.00 83 1012.9
20260505065403 55 218 0.0 0.9 0.00 0.00 0.00 83 1012.8
20260505064902 55 218 0.0 0.9 0.00 0.00 0.00 82 1012.7
20260505064403 56 219 0.0 0.0 0.00 0.00 0.00 81 1012.7
20260505063902 56 219 0.0 0.0 0.00 0.00 0.00 81 1012.6
20260505063403 56 228 0.0 0.0 0.00 0.00 0.00 80 1012.4
20260505062904 57 228 0.0 0.0 0.00 0.00 0.00 80 1012.4
20260505062403 57 319 0.0 0.9 0.00 0.00 0.00 79 1012.3
20260505061904 57 349 0.0 1.7 0.00 0.00 0.00 79 1012.2
20260505061403 57 9 0.0 1.7 0.00 0.00 0.00 78 1012.2
20260505060903 58 22 0.9 1.7 0.00 0.00 0.00 77 1012.1
20260505060403 58 32 0.0 1.7 0.00 0.00 0.00 77 1012.1
20260505055903 58 10 0.0 1.7 0.00 0.00 0.00 76 1012.1
20260505054903 59 192 0.0 2.6 0.00 0.00 0.00 75 1012.1
20260505054403 59 298 0.9 2.6 0.00 0.00 0.00 75 1012.0
20260505053904 60 249 0.9 1.7 0.00 0.00 0.00 74 1012.1
20260505053403 60 42 0.0 0.0 0.00 0.00 0.00 74 1012.1
20260505052902 61 49 0.0 1.7 0.00 0.00 0.00 72 1012.0
20260505052403 61 43 0.0 1.7 0.00 0.00 0.00 71 1012.0
20260505051402 62 101 0.0 2.6 0.00 0.00 0.00 70 1012.0
20260505050903 62 349 0.0 2.6 0.00 0.00 0.00 70 1011.9
20260505050403 63 97 0.0 2.6 0.00 0.00 0.00 70 1011.8
20260505041403 64 187 0.0 2.6 0.00 0.00 0.00 74 1011.1
20260505040403 64 207 0.0 1.7 0.00 0.00 0.00 71 1010.9
20260505035903 65 231 0.0 1.7 0.00 0.00 0.00 69 1010.9
20260505034903 65 186 0.0 2.6 0.00 0.00 0.00 66 1010.7
20260505033903 66 208 0.0 0.9 0.00 0.00 0.00 67 1010.6
20260505033403 66 262 0.0 1.7 0.00 0.00 0.00 70 1010.5
20260505032904 66 262 0.0 2.6 0.00 0.00 0.00 70 1010.4
20260505032403 66 258 1.7 2.6 0.00 0.00 0.00 74 1010.4
20260505031903 67 210 0.0 0.0 0.00 0.00 0.00 75 1010.2
20260505031403 67 210 0.0 0.0 0.00 0.00 0.00 73 1010.0
20260505030903 68 210 0.0 0.0 0.00 0.00 0.00 72 1010.0
20260505030402 68 210 0.0 0.0 0.00 0.00 0.00 71 1009.9
20260505025904 69 210 0.0 0.0 0.00 0.00 0.00 70 1009.8
20260505025403 69 210 0.0 0.0 0.00 0.00 0.00 69 1009.8
20260505024903 70 210 0.0 0.0 0.00 0.00 0.00 68 1009.8
20260505024403 70 213 0.0 1.7 0.00 0.00 0.00 67 1009.7
20260505023903 71 214 0.0 1.7 0.00 0.00 0.00 65 1009.6
20260505022403 72 219 0.9 2.6 0.00 0.00 0.00 61 1009.6
20260505020903 73 198 0.9 5.2 0.00 0.00 0.00 58 1009.7
20260505015903 74 224 0.0 2.6 0.00 0.00 0.00 56 1009.7
20260505015403 74 215 0.9 4.3 0.00 0.00 0.00 56 1009.7
20260505014403 74 198 0.9 4.3 0.00 0.00 0.00 57 1009.8
20260505013904 75 211 0.0 2.6 0.00 0.00 0.00 56 1009.7
20260505013403 75 239 0.0 4.3 0.00 0.00 0.00 54 1009.8
20260505012903 76 167 0.0 4.3 0.00 0.00 0.00 55 1009.8
20260505012403 76 174 1.7 4.3 0.00 0.00 0.00 52 1009.8
20260505011902 76 229 1.7 4.3 0.00 0.00 0.00 53 1009.9
20260505011403 76 135 0.9 2.6 0.00 0.00 0.00 53 1009.9
20260505010903 76 291 0.0 2.6 0.00 0.00 0.00 53 1009.9
20260505010403 76 11 0.9 2.6 0.00 0.00 0.00 54 1010.0
20260505005403 76 212 0.0 2.6 0.00 0.00 0.00 54 1010.0
20260505004903 76 172 1.7 2.6 0.00 0.00 0.00 51 1010.0
20260505004403 76 142 0.0 2.6 0.00 0.00 0.00 54 1010.0
20260505003903 76 331 0.0 2.6 0.00 0.00 0.00 54 1010.1
20260505003403 76 226 0.9 2.6 0.00 0.00 0.00 52 1010.2
20260505002903 76 268 0.9 1.7 0.00 0.00 0.00 54 1010.2
20260505002403 76 302 0.0 2.6 0.00 0.00 0.00 54 1010.2
20260505001903 75 166 0.0 6.1 0.00 0.00 0.00 53 1010.3
20260505001403 75 182 1.7 6.1 0.00 0.00 0.00 53 1010.3
20260505000903 75 150 2.6 5.2 0.00 0.00 0.00 53 1010.3
20260504235903 75 296 0.9 5.2 0.00 0.00 0.00 55 1010.5
20260504235403 75 203 0.9 7.8 0.00 0.00 0.00 55 1010.4
20260504234903 75 266 2.6 7.8 0.00 0.00 0.00 53 1010.5
20260504234402 75 220 0.9 4.3 0.00 0.00 0.00 52 1010.5
20260504233903 75 273 0.0 2.6 0.00 0.00 0.00 55 1010.4
20260504233403 75 261 0.0 1.7 0.00 0.00 0.00 56 1010.5
20260504232402 74 240 0.0 2.6 0.00 0.00 0.00 59 1010.5
20260504231903 74 107 0.0 4.3 0.00 0.00 0.00 54 1010.6
20260504231403 74 252 0.9 4.3 0.00 0.00 0.00 54 1010.5
20260504230903 74 189 0.9 4.3 0.00 0.00 0.00 56 1010.6
20260504230403 74 197 1.7 4.3 0.00 0.00 0.00 54 1010.7
20260504225903 74 320 1.7 2.6 0.00 0.00 0.00 54 1010.8
20260504225403 74 145 0.0 2.6 0.00 0.00 0.00 55 1010.8
20260504224903 74 266 0.9 2.6 0.00 0.00 0.00 57 1010.9
20260504224403 74 272 1.7 2.6 0.00 0.00 0.00 58 1010.9
20260504223903 73 52 0.9 4.3 0.00 0.00 0.00 58 1011.0
20260504223403 73 239 0.9 4.3 0.00 0.00 0.00 56 1011.1
20260504222903 72 314 0.0 2.6 0.00 0.00 0.00 59 1011.1
20260504222403 72 251 0.9 5.2 0.00 0.00 0.00 58 1011.2
20260504221903 71 295 1.7 5.2 0.00 0.00 0.00 57 1011.3
20260504221403 71 225 1.7 5.2 0.00 0.00 0.00 57 1011.3
20260504220902 71 224 0.9 4.3 0.00 0.00 0.00 58 1011.4
20260504220403 71 85 1.7 5.2 0.00 0.00 0.00 59 1011.5
20260504215903 71 185 2.6 5.2 0.00 0.00 0.00 58 1011.6
20260504215403 71 205 1.7 4.3 0.00 0.00 0.00 61 1011.6
20260504214903 71 341 0.9 5.2 0.00 0.00 0.00 64 1011.7
20260504214403 70 221 0.9 5.2 0.00 0.00 0.00 63 1011.7
20260504213403 69 130 1.7 5.2 0.00 0.00 0.00 62 1011.8
20260504212903 69 171 0.9 5.2 0.00 0.00 0.00 61 1011.9
20260504212403 69 120 1.7 5.2 0.00 0.00 0.00 61 1011.9
20260504211903 69 276 1.7 4.3 0.00 0.00 0.00 61 1012.0
20260504211403 69 244 1.7 6.1 0.00 0.00 0.00 63 1012.1
20260504210903 68 257 2.6 6.1 0.00 0.00 0.00 62 1012.1
20260504210403 68 294 1.7 6.1 0.00 0.00 0.00 67 1012.3
20260504205903 68 246 0.9 5.2 0.00 0.00 0.00 64 1012.2
20260504205403 68 286 1.7 5.2 0.00 0.00 0.00 65 1012.3
20260504204903 68 355 1.7 5.2 0.00 0.00 0.00 66 1012.4
20260504203904 67 226 1.7 5.2 0.00 0.00 0.00 65 1012.6
20260504203403 67 230 0.9 5.2 0.00 0.00 0.00 65 1012.6
20260504202904 67 175 0.9 5.2 0.00 0.00 0.00 64 1012.8
20260504202403 67 228 2.6 5.2 0.00 0.00 0.00 66 1012.7
20260504201903 67 288 0.9 5.2 0.00 0.00 0.00 69 1012.6
20260504200903 66 249 0.9 5.2 0.00 0.00 0.00 69 1012.8
20260504200404 65 331 0.0 6.1 0.00 0.00 0.00 68 1012.9
20260504195903 66 221 2.6 6.1 0.00 0.00 0.00 68 1012.9
20260504195404 65 203 1.7 5.2 0.00 0.00 0.00 67 1012.9
20260504194903 65 223 0.9 5.2 0.00 0.00 0.00 69 1012.9
20260504194403 64 110 0.0 4.3 0.00 0.00 0.00 71 1013.0
20260504193904 64 85 1.7 6.1 0.00 0.00 0.00 69 1013.0
20260504193402 64 169 0.9 6.1 0.00 0.00 0.00 70 1013.0
20260504192402 63 317 0.0 5.2 0.00 0.00 0.00 71 1013.1
20260504191903 63 224 2.6 6.1 0.00 0.00 0.00 71 1013.2
20260504191403 63 289 1.7 6.1 0.00 0.00 0.00 74 1013.2
20260504190903 63 179 2.6 7.8 0.00 0.00 0.00 72 1013.2
20260504190403 62 145 3.5 7.8 0.00 0.00 0.00 71 1013.4
20260504185903 63 69 2.6 6.1 0.00 0.00 0.00 70 1013.4
20260504185403 63 124 1.7 6.1 0.00 0.00 0.00 72 1013.4
20260504184903 63 323 1.7 5.2 0.00 0.00 0.00 70 1013.4
20260504184403 62 158 0.9 2.6 0.00 0.00 0.00 74 1013.5
20260504183903 61 287 0.9 4.3 0.00 0.00 0.00 74 1013.5
20260504183403 62 143 1.7 4.3 0.00 0.00 0.00 72 1013.5
20260504182903 62 139 0.0 5.2 0.00 0.00 0.00 73 1013.4
20260504182403 62 69 2.6 5.2 0.00 0.00 0.00 72 1013.5
20260504181902 61 211 0.9 5.2 0.00 0.00 0.00 76 1013.4
20260504181403 60 144 0.9 6.1 0.00 0.00 0.00 75 1013.5
20260504180903 60 292 1.7 6.1 0.00 0.00 0.00 75 1013.5
20260504180403 60 274 1.7 6.1 0.00 0.00 0.00 77 1013.4
20260504175903 60 241 1.7 6.1 0.00 0.00 0.00 74 1013.4
20260504175403 60 315 0.9 5.2 0.00 0.00 0.00 76 1013.4
20260504174903 60 285 0.9 5.2 0.00 0.00 0.00 76 1013.5
20260504173903 59 120 1.7 5.2 0.00 0.00 0.00 77 1013.4
20260504173403 59 92 2.6 7.8 0.00 0.00 0.00 76 1013.4
20260504172902 59 83 1.7 7.8 0.00 0.00 0.00 76 1013.4
20260504172403 59 28 1.7 4.3 0.00 0.00 0.00 78 1013.4
20260504171903 59 220 1.7 5.2 0.00 0.00 0.00 76 1013.4
20260504170904 59 89 0.9 5.2 0.00 0.00 0.00 77 1013.4
20260504170403 59 118 1.7 6.1 0.00 0.00 0.00 77 1013.3
20260504160403 59 89 0.9 8.7 0.00 0.00 0.00 76 1013.2